DW4657 Weather Reports


Display with metric or nautical units.
time (UTC)temp
F
wind
direction
speed
MPH
gust
MPH
rain 1hr
in
rain 24hr
in
rain mn
in
humidity
%
barometer
mb
20260505183041 73 177 7.0 14.0 0.00 0.00 0.00 55 1009.0
20260505182521 73 192 7.0 14.0 0.00 0.00 0.00 54 1008.9
20260505182021 73 140 6.0 14.0 0.00 0.00 0.00 54 1008.9
20260505181535 73 215 6.0 14.0 0.00 0.00 0.00 56 1008.9
20260505181021 73 157 7.0 17.0 0.00 0.00 0.00 56 1009.1
20260505180522 73 257 7.0 17.0 0.00 0.00 0.00 55 1009.1
20260505180033 72 151 6.0 16.0 0.00 0.00 0.00 57 1009.2
20260505175520 72 79 8.0 16.0 0.00 0.00 0.00 56 1009.3
20260505175022 72 101 6.0 20.0 0.00 0.00 0.00 56 1009.6
20260505174538 72 218 10.0 20.0 0.00 0.00 0.00 56 1009.6
20260505174020 72 196 7.0 13.0 0.00 0.00 0.00 56 1009.7
20260505173520 72 149 6.0 18.0 0.00 0.00 0.00 57 1009.6
20260505173037 71 206 7.0 20.0 0.00 0.00 0.00 58 1009.7
20260505172520 71 226 8.0 20.0 0.00 0.00 0.00 57 1009.7
20260505172020 71 219 8.0 19.0 0.00 0.00 0.00 57 1009.7
20260505171537 72 263 7.0 19.0 0.00 0.00 0.00 57 1009.7
20260505171020 72 198 7.0 17.0 0.00 0.00 0.00 57 1009.7
20260505170521 72 230 6.0 14.0 0.00 0.00 0.00 58 1009.7
20260505170038 73 156 4.0 14.0 0.00 0.00 0.00 58 1009.7
20260505165521 72 27 4.0 16.0 0.00 0.00 0.00 60 1009.8
20260505165021 72 333 7.0 16.0 0.00 0.00 0.00 58 1010.1
20260505164536 73 200 6.0 16.0 0.00 0.00 0.00 59 1010.1
20260505164021 73 198 6.0 17.0 0.00 0.00 0.00 58 1010.0
20260505163520 73 142 6.0 17.0 0.00 0.00 0.00 58 1010.1
20260505163039 73 212 5.0 12.0 0.00 0.00 0.00 57 1010.1
20260505162523 73 214 5.0 12.0 0.00 0.00 0.00 57 1010.1
20260505162019 73 167 5.0 12.0 0.00 0.00 0.00 59 1010.1
20260505161540 73 143 5.0 12.0 0.00 0.00 0.00 58 1010.0
20260505161024 73 217 5.0 12.0 0.00 0.00 0.00 57 1010.1
20260505160519 73 203 6.0 13.0 0.00 0.00 0.00 57 1010.1
20260505153044 71 217 5.0 11.0 0.00 0.00 0.00 60 1010.1
20260505152518 71 150 6.0 11.0 0.00 0.00 0.00 61 1010.1
20260505152018 71 271 6.0 10.0 0.00 0.00 0.00 61 1010.1
20260505151544 71 87 3.0 11.0 0.00 0.00 0.00 62 1010.2
20260505151021 70 228 3.0 12.0 0.00 0.00 0.00 63 1010.2
20260505150520 69 148 4.0 12.0 0.00 0.00 0.00 64 1010.2
20260505140523 67 220 4.0 11.0 0.00 0.00 0.00 69 1010.3
20260505125019 61 142 5.0 11.0 0.00 0.00 0.00 74 1010.9
20260505124537 61 191 3.0 9.0 0.00 0.00 0.00 74 1011.2
20260505124018 60 143 4.0 12.0 0.00 0.00 0.00 74 1011.2
20260505123520 60 238 4.0 12.0 0.00 0.00 0.00 75 1011.2
20260505123036 60 221 5.0 12.0 0.00 0.00 0.00 75 1011.1
20260505122520 60 226 5.0 11.0 0.00 0.00 0.00 76 1010.9
20260505122019 59 229 6.0 11.0 0.00 0.00 0.00 76 1010.9
20260505121538 59 239 3.0 11.0 0.00 0.00 0.00 77 1010.9
20260505121019 58 197 3.0 11.0 0.00 0.00 0.00 78 1010.9
20260505120518 58 193 5.0 11.0 0.00 0.00 0.00 78 1010.8
20260505120037 58 204 4.0 11.0 0.00 0.00 0.00 79 1010.9
20260505115518 57 139 4.0 9.0 0.00 0.00 0.00 79 1010.9
20260505115019 57 189 5.0 9.0 0.00 0.00 0.00 80 1010.8
20260505114537 57 209 2.0 6.0 0.00 0.00 0.00 81 1010.9
20260505114019 56 204 1.0 10.0 0.00 0.00 0.00 83 1010.8
20260505113519 55 222 3.0 10.0 0.00 0.00 0.00 83 1010.9
20260505113042 54 217 3.0 11.0 0.00 0.00 0.00 84 1010.9
20260505112519 54 201 5.0 11.0 0.00 0.00 0.00 85 1010.9
20260505112019 53 221 4.0 8.0 0.00 0.00 0.00 86 1010.9
20260505111542 53 224 4.0 7.0 0.00 0.00 0.00 86 1010.9
20260505111019 53 136 3.0 8.0 0.00 0.00 0.00 87 1010.8
20260505110518 52 179 3.0 8.0 0.00 0.00 0.00 88 1010.7
20260505102019 49 169 0.0 2.0 0.00 0.00 0.00 91 1010.7
20260505101536 49 0 0.0 2.0 0.00 0.00 0.00 91 1010.6
20260505101023 49 175 1.0 2.0 0.00 0.00 0.00 91 1010.7
20260505100519 49 193 1.0 2.0 0.00 0.00 0.00 91 1010.6
20260505100039 49 139 0.0 2.0 0.00 0.00 0.00 91 1010.6
20260505095520 49 158 0.0 2.0 0.00 0.00 0.00 91 1010.6
20260505095019 49 0 0.0 3.0 0.00 0.00 0.00 91 1010.7
20260505094537 49 0 0.0 5.0 0.00 0.00 0.00 91 1010.7
20260505094019 49 167 1.0 5.0 0.00 0.00 0.00 91 1010.8
20260505093519 49 167 0.0 4.0 0.00 0.00 0.00 92 1010.7
20260505093046 49 167 1.0 3.0 0.00 0.00 0.00 91 1010.8
20260505092519 49 0 0.0 2.0 0.00 0.00 0.00 91 1010.8
20260505092019 49 193 0.0 2.0 0.00 0.00 0.00 91 1010.9
20260505091534 48 0 0.0 2.0 0.00 0.00 0.00 91 1010.9
20260505091021 48 0 0.0 3.0 0.00 0.00 0.00 91 1010.8
20260505090519 48 153 1.0 3.0 0.00 0.00 0.00 91 1010.8
20260505090039 48 0 0.0 2.0 0.00 0.00 0.00 91 1010.9
20260505085520 48 172 0.0 1.0 0.00 0.00 0.00 91 1010.9
20260505085020 48 0 0.0 3.0 0.00 0.00 0.00 90 1011.0
20260505084540 48 0 1.0 3.0 0.00 0.00 0.00 91 1011.1
20260505084018 48 0 0.0 2.0 0.00 0.00 0.00 90 1010.9
20260505083519 48 153 0.0 2.0 0.00 0.00 0.00 90 1011.0
20260505083047 48 216 0.0 3.0 0.00 0.00 0.00 90 1010.9
20260505082519 48 186 0.0 4.0 0.00 0.00 0.00 90 1011.0
20260505082019 48 201 1.0 4.0 0.00 0.00 0.00 90 1011.0
20260505081537 48 158 1.0 3.0 0.00 0.00 0.00 90 1010.7
20260505081022 48 199 1.0 3.0 0.00 0.00 0.00 90 1010.8
20260505080522 48 193 1.0 2.0 0.00 0.00 0.00 90 1010.9
20260505080036 48 0 0.0 2.0 0.00 0.00 0.00 90 1010.9
20260505075520 48 128 0.0 3.0 0.00 0.00 0.00 89 1011.0
20260505075019 48 156 0.0 3.0 0.00 0.00 0.00 89 1011.0
20260505074536 48 209 1.0 3.0 0.00 0.00 0.00 89 1011.1
20260505074019 49 180 1.0 3.0 0.00 0.00 0.00 89 1011.1
20260505073519 49 165 0.0 2.0 0.00 0.00 0.00 89 1011.0
20260505073041 49 0 0.0 3.0 0.00 0.00 0.00 89 1011.0
20260505072518 49 200 1.0 3.0 0.00 0.00 0.00 89 1011.1
20260505072018 49 220 1.0 3.0 0.00 0.00 0.00 88 1011.0
20260505071537 49 207 1.0 4.0 0.00 0.00 0.00 88 1011.1
20260505071018 49 212 1.0 4.0 0.00 0.00 0.00 88 1011.0
20260505070518 49 226 1.0 4.0 0.00 0.00 0.00 88 1011.1
20260505070049 49 259 1.0 5.0 0.00 0.00 0.00 88 1011.0
20260505065519 49 158 2.0 5.0 0.00 0.00 0.00 88 1011.0
20260505065018 49 152 1.0 3.0 0.00 0.00 0.00 88 1011.1
20260505064537 49 100 1.0 4.0 0.00 0.00 0.00 87 1011.1
20260505064019 49 0 2.0 4.0 0.00 0.00 0.00 87 1011.2
20260505063519 49 231 1.0 5.0 0.00 0.00 0.00 87 1011.1
20260505063032 49 219 1.0 7.0 0.00 0.00 0.00 87 1011.2
20260505062520 49 212 2.0 7.0 0.00 0.00 0.00 87 1011.2
20260505062019 49 136 2.0 5.0 0.00 0.00 0.00 86 1011.3
20260505061558 49 188 1.0 5.0 0.00 0.00 0.00 86 1011.2
20260505061018 49 175 2.0 5.0 0.00 0.00 0.00 86 1011.2
20260505060519 49 226 1.0 4.0 0.00 0.00 0.00 86 1011.2
20260505060045 50 195 1.0 6.0 0.00 0.00 0.00 86 1011.3
20260505055519 50 243 1.0 6.0 0.00 0.00 0.00 85 1011.2
20260505055019 50 235 1.0 6.0 0.00 0.00 0.00 85 1011.2
20260505054546 50 214 2.0 5.0 0.00 0.00 0.00 85 1011.2
20260505054018 50 179 2.0 5.0 0.00 0.00 0.00 85 1011.1
20260505053518 50 191 2.0 5.0 0.00 0.00 0.00 85 1011.2
20260505053035 50 204 2.0 5.0 0.00 0.00 0.00 85 1011.2
20260505052519 50 210 1.0 5.0 0.00 0.00 0.00 84 1011.1
20260505052025 50 165 2.0 5.0 0.00 0.00 0.00 84 1011.1
20260505051532 50 237 2.0 7.0 0.00 0.00 0.00 84 1011.2
20260505051019 50 184 2.0 7.0 0.00 0.00 0.00 84 1011.2
20260505050518 50 208 2.0 6.0 0.00 0.00 0.00 83 1011.2
20260505041537 51 211 3.0 7.0 0.00 0.00 0.00 82 1011.5
20260505041019 51 217 2.0 8.0 0.00 0.00 0.00 81 1011.4
20260505040519 51 179 2.0 9.0 0.00 0.00 0.00 81 1011.5
20260505040051 51 170 3.0 9.0 0.00 0.00 0.00 81 1011.4
20260505035519 51 229 2.0 10.0 0.00 0.00 0.00 81 1011.4
20260505035020 51 195 3.0 10.0 0.00 0.00 0.00 80 1011.3
20260505034540 51 159 3.0 7.0 0.00 0.00 0.00 80 1011.2
20260505034019 51 209 3.0 6.0 0.00 0.00 0.00 80 1011.2
20260505033519 51 221 2.0 7.0 0.00 0.00 0.00 79 1011.3
20260505033038 52 203 3.0 7.0 0.00 0.00 0.00 79 1011.2
20260505032520 52 187 2.0 6.0 0.00 0.00 0.00 79 1011.1
20260505032020 52 153 3.0 6.0 0.00 0.00 0.00 78 1011.1
20260505031547 52 217 2.0 6.0 0.00 0.00 0.00 78 1011.2
20260505031018 52 172 3.0 9.0 0.00 0.00 0.00 78 1011.3
20260505030518 52 198 3.0 9.0 0.00 0.00 0.00 78 1011.4
20260505030041 52 193 2.0 9.0 0.00 0.00 0.00 77 1011.5
20260505025520 52 155 3.0 9.0 0.00 0.00 0.00 77 1011.4
20260505025018 52 172 3.0 9.0 0.00 0.00 0.00 77 1011.4
20260505024537 53 203 1.0 7.0 0.00 0.00 0.00 76 1011.4
20260505024018 53 216 2.0 7.0 0.00 0.00 0.00 76 1011.4
20260505023519 53 231 3.0 7.0 0.00 0.00 0.00 75 1011.4
20260505023035 53 131 3.0 7.0 0.00 0.00 0.00 75 1011.3
20260505022520 53 204 3.0 7.0 0.00 0.00 0.00 75 1011.3
20260505022021 53 202 3.0 8.0 0.00 0.00 0.00 75 1011.4
20260505021538 54 164 3.0 9.0 0.00 0.00 0.00 74 1011.5
20260505021021 54 200 2.0 10.0 0.00 0.00 0.00 74 1011.5
20260505020518 54 224 3.0 10.0 0.00 0.00 0.00 74 1011.4
20260505020042 54 201 3.0 11.0 0.00 0.00 0.00 74 1011.4
20260505015519 54 198 4.0 11.0 0.00 0.00 0.00 73 1011.4
20260505015018 54 222 3.0 8.0 0.00 0.00 0.00 73 1011.4
20260505014542 55 170 3.0 10.0 0.00 0.00 0.00 73 1011.4
20260505014018 55 210 3.0 10.0 0.00 0.00 0.00 72 1011.3
20260505013520 55 179 4.0 10.0 0.00 0.00 0.00 72 1011.3
20260505013037 55 272 3.0 8.0 0.00 0.00 0.00 72 1011.2
20260505012518 55 242 3.0 13.0 0.00 0.00 0.00 71 1011.2
20260505012018 55 203 4.0 13.0 0.00 0.00 0.00 71 1011.2
20260505011538 55 191 5.0 14.0 0.00 0.00 0.00 70 1011.1
20260505011019 56 231 6.0 14.0 0.00 0.00 0.00 70 1011.0
20260505010520 56 165 4.0 12.0 0.00 0.00 0.00 69 1010.9
20260505010041 56 172 4.0 14.0 0.00 0.00 0.00 69 1010.9
20260505005519 56 216 3.0 14.0 0.00 0.00 0.00 68 1010.9
20260505005019 56 207 5.0 14.0 0.00 0.00 0.00 67 1010.7
20260505004538 56 192 4.0 14.0 0.00 0.00 0.00 67 1010.5
20260505004018 56 221 5.0 14.0 0.00 0.00 0.00 66 1010.3
20260505003521 56 183 4.0 13.0 0.00 0.00 0.00 65 1010.4
20260505003037 57 214 6.0 13.0 0.00 0.00 0.00 65 1010.2
20260505002518 57 173 4.0 12.0 0.00 0.00 0.00 64 1010.1
20260505002018 57 247 4.0 12.0 0.00 0.00 0.00 63 1010.0
20260505001539 57 207 4.0 16.0 0.00 0.00 0.00 62 1009.8
20260505001018 57 181 5.0 16.0 0.00 0.00 0.00 61 1009.8
20260505000521 58 201 4.0 14.0 0.00 0.00 0.00 60 1009.7
20260505000048 58 214 5.0 14.0 0.00 0.00 0.00 60 1009.6
20260504235518 58 130 5.0 13.0 0.00 0.00 0.00 59 1009.6
20260504235018 58 188 5.0 13.0 0.00 0.00 0.00 59 1009.4
20260504234536 58 187 5.0 13.0 0.00 0.00 0.00 59 1009.4
20260504234019 58 232 5.0 15.0 0.00 0.00 0.00 59 1009.4
20260504233518 59 222 5.0 15.0 0.00 0.00 0.00 58 1009.3
20260504233035 59 207 6.0 14.0 0.00 0.00 0.00 58 1009.3
20260504232521 59 192 5.0 17.0 0.00 0.00 0.00 57 1009.2
20260504232020 60 214 5.0 17.0 0.00 0.00 0.00 56 1009.1
20260504231538 60 173 4.0 14.0 0.00 0.00 0.00 56 1009.0
20260504231021 60 178 7.0 16.0 0.00 0.00 0.00 55 1008.9
20260504230519 61 162 7.0 16.0 0.00 0.00 0.00 54 1008.9
20260504230040 61 214 6.0 14.0 0.00 0.00 0.00 53 1008.8
20260504225521 62 168 6.0 13.0 0.00 0.00 0.00 52 1008.7
20260504225021 62 233 5.0 14.0 0.00 0.00 0.00 52 1008.6
20260504224538 62 219 4.0 14.0 0.00 0.00 0.00 52 1008.5
20260504224018 62 209 5.0 16.0 0.00 0.00 0.00 52 1008.5
20260504223519 63 192 8.0 18.0 0.00 0.00 0.00 51 1008.3
20260504223037 63 141 8.0 18.0 0.00 0.00 0.00 50 1008.4
20260504222520 63 166 6.0 19.0 0.00 0.00 0.00 51 1008.2
20260504222018 63 136 6.0 19.0 0.00 0.00 0.00 51 1008.2
20260504221542 63 167 9.0 19.0 0.00 0.00 0.00 50 1008.2
20260504221019 64 193 7.0 19.0 0.00 0.00 0.00 50 1008.2
20260504220519 64 223 6.0 19.0 0.00 0.00 0.00 50 1008.1
20260504220048 64 234 5.0 22.0 0.00 0.00 0.00 51 1008.1
20260504215519 64 191 6.0 22.0 0.00 0.00 0.00 50 1008.1
20260504215019 64 217 7.0 18.0 0.00 0.00 0.00 49 1008.2
20260504214538 65 193 8.0 18.0 0.00 0.00 0.00 49 1008.3
20260504214018 65 229 7.0 15.0 0.00 0.00 0.00 49 1008.1
20260504213520 65 182 6.0 20.0 0.00 0.00 0.00 49 1008.1
20260504213053 65 203 9.0 20.0 0.00 0.00 0.00 48 1008.0
20260504212519 65 231 7.0 20.0 0.00 0.00 0.00 48 1008.1
20260504212022 65 209 8.0 20.0 0.00 0.00 0.00 48 1008.0
20260504211541 66 223 6.0 16.0 0.00 0.00 0.00 47 1008.0
20260504211018 66 176 8.0 18.0 0.00 0.00 0.00 46 1007.9
20260504210519 66 250 6.0 18.0 0.00 0.00 0.00 46 1007.9
20260504210038 67 67 7.0 16.0 0.00 0.00 0.00 44 1007.9
20260504205519 67 181 8.0 15.0 0.00 0.00 0.00 44 1007.9
20260504205019 67 76 8.0 15.0 0.00 0.00 0.00 44 1007.8
20260504204539 68 201 6.0 18.0 0.00 0.00 0.00 43 1007.8
20260504204019 68 282 7.0 18.0 0.00 0.00 0.00 42 1007.8
20260504203520 67 208 6.0 17.0 0.00 0.00 0.00 41 1007.7
20260504203035 68 220 8.0 20.0 0.00 0.00 0.00 41 1007.7
20260504202518 68 184 9.0 20.0 0.00 0.00 0.00 41 1007.7
20260504202019 68 86 4.0 21.0 0.00 0.00 0.00 40 1007.6
20260504201539 68 203 7.0 21.0 0.00 0.00 0.00 41 1007.7
20260504201018 68 184 9.0 18.0 0.00 0.00 0.00 39 1007.7
20260504200519 68 184 5.0 18.0 0.00 0.00 0.00 39 1007.7
20260504200038 68 232 9.0 18.0 0.00 0.00 0.00 39 1007.6
20260504195518 68 159 7.0 18.0 0.00 0.00 0.00 37 1007.6
20260504195018 69 201 10.0 17.0 0.00 0.00 0.00 36 1007.8
20260504194538 69 201 6.0 15.0 0.00 0.00 0.00 36 1007.7
20260504194019 70 264 6.0 17.0 0.00 0.00 0.00 36 1007.8
20260504193518 70 251 4.0 17.0 0.00 0.00 0.00 35 1007.7
20260504193053 70 206 4.0 14.0 0.00 0.00 0.00 35 1007.7
20260504192518 70 216 7.0 14.0 0.00 0.00 0.00 34 1007.6
20260504192018 70 221 5.0 19.0 0.00 0.00 0.00 32 1007.7
20260504191536 70 263 6.0 19.0 0.00 0.00 0.00 33 1007.6
20260504191018 70 210 5.0 16.0 0.00 0.00 0.00 32 1007.7
20260504190521 69 125 5.0 16.0 0.00 0.00 0.00 34 1007.7
20260504190040 69 75 9.0 19.0 0.00 0.00 0.00 32 1007.8
20260504185518 70 184 8.0 19.0 0.00 0.00 0.00 33 1007.8
20260504185020 70 252 6.0 18.0 0.00 0.00 0.00 32 1007.9
20260504184535 70 224 8.0 19.0 0.00 0.00 0.00 33 1007.9
20260504184022 69 293 8.0 25.0 0.00 0.00 0.00 33 1008.0
20260504183519 69 251 9.0 25.0 0.00 0.00 0.00 33 1008.1